Location: Cheyres
(46.8153°N, 6.7877°E)
Time: 01:54:25
(UTC+00:00)

Tiros 1 - Pass Details

Date: 26 May 2022
Orbit: 629 x 663 km, 48.4° (Epoch: 05 July)

Event Time Altitude Azimuth Distance (km) Brightness Sun altitude
Exits shadow 00:56:07 45° 200° (SSW) 857 7.3 -19.4°
Maximum altitude 00:57:07 57° 154° (SSE) 750 7.2 -19.3°
Drops below altitude 10° 01:01:41 10° 76° (ENE) 2,028 10.2 -19.0°
Sets 01:04:03 0° 73° (ENE) 2,945 11.1 -18.8°
